THOR ABLESTAR DEB, 3124

Orbit data source: Space-Track

THOR ABLESTAR DEB, 3124 is space debris in LEO originally from a launch on Thu, 29 Jun 1961 UTC launched from the Air Force Eastern Test Range (AFETR). Debris objects in space refer to the collection of defunct objects orbiting the Earth. Examples of debris include non-operational satellites, rocket bodies, and fragments generated from explosions, collisions, or faulty payload assembly.

Loading next visibility...
Identifier
3124, 1961-015HX
Orbit
LEO
Country
Flag of USUS
Related business
Manufacturer
Unknown
Mission
Spacecraft
Bus & Motor
Unknown
Mass
Unknown
Launch date (UTC)
1961-06-29 (64 years ago)
Launch vehicle
Unknown
Launch site
Air Force Eastern Test Range (AFETR)
Object type
Payload
Rocket body
Debris
Shape & HBR
Unknown shape, 0.1 m
Radar Cross Section
Small (<0.1 m²)

Expand to show TLE details & history
Last TLE update: 19 hours ago

TLE from 19 hours ago
0 THOR ABLESTAR DEB
1 03124U 61015HX  25352.97028162  .00000401  00000-0  46921-3 0  9995
2 03124  66.9875 336.0860 0323149 206.9670 151.4283 13.57203368144686
Epoch: 2025-12-18T23:17Z
TLE epoch observation values (Epoch: 2025-12-18T23:17:12.331Z)
Latitude
-0.00003°
Longitude
-101.03354°
Altitude
1,260.342 km
Speed
7.122 km/s
True Right ascension
22h 24m 20s
True Declination
0° 00' 00"
Sunlit
Object was in daylight at epoch
Visualization orbit readout
Latitude
Unknown
Longitude
Unknown
Altitude
Unknown
Speed
Unknown
Apparent Right ascension
Unknown
Apparent Declination
Unknown
Sunlit
N/A
Visualization observer readout
Local Sidereal Time
17:37:02
Azimuth
Unknown
Elevation
Unknown
Doppler factor
Unknown
Orbital elements
Apogee altitude
1,284.124 km
Perigee altitude
804.415 km
Semi-major axis
7,422.406 km
Eccentricity
0.03231
Inclination
66.9875°
RAAN
336.086°
Arg. of periapsis
206.967°
True anomaly
153.13829°
Mean anomaly
151.4283°
Eccentric anomaly
152.28927°
Mean motion
3.39411 °/min
Orbital period
106.07 mins
BSTAR
0.00046921
Loading maneuver chart data...
Computing Atmospheric mass density...

Documentation

Showing up to 5 results
|